Regional Weather Roundup
Issued by NWS Northern Indiana

Home | Current Version | Previous Version | Graphics & Text | Print | Product List | Glossary On
Versions: 1 2 3 4 5 6 7 8 9 10 11 12 13 14 15 16 17 18 19 20 21 22 23 24 25 26 27 28 29 30 31 32 33 34 35 36 37 38 39 40 41 42 43 44 45 46 47 48 49 50
000
ASUS43 KIWX 041510
RWRIWX

KIWX WEATHER ROUNDUP
NATIONAL WEATHER SERVICE NORTHERN INDIANA
1000 AM EST WED MAR 04 2015

NOTE: "FAIR" INDICATES FEW OR NO CLOUDS BELOW 12,000 FEET WITH NO
SIGNIFICANT WEATHER AND/OR OBSTRUCTIONS TO VISIBILITY.

* THESE STATIONS ARE NOT UNDER NWS QUALITY CONTROL. THEY ALSO MAY NOT
  REPORT WEATHER SUCH AS PRECIPITATION OR FOG.

INZ001>027-041600-
NORTHERN INDIANA

CITY           SKY/WX    TMP DP  RH WIND       PRES   REMARKS
GARY*          PTSUNNY   25  12  58 W20       30.07R WCI  11
VALPARAISO     CLOUDY    24  17  74 NW13      30.06R WCI  12
MICHIGAN CITY* CLOUDY    27  14  59 N10G16    30.05R WCI  17
LAPORTE*       CLOUDY    27  19  74 NW15G22   30.04R WCI  15
KNOX*            N/A     28  14  54 NW14      30.03R WCI  17
SOUTH BEND     CLOUDY    27  19  72 NW16      30.02R WCI  15
ELKHART*       CLOUDY    28  18  64 NW9       30.00R WCI  20
GOSHEN         CLOUDY    28  22  78 N14       29.99R WCI  17
MONTICELLO*    CLOUDY    25  21  86 W9        30.04R WCI  15
LOGANSPORT*    CLOUDY    30  25  80 W10       30.03R WCI  21
ROCHESTER*     PTSUNNY   32  28  86 NW10      30.01R WCI  24
WARSAW*        PTSUNNY   30  25  80 NW13      29.99S WCI  20
ANGOLA*        CLOUDY    30  21  69 NW9       29.94F WCI  22
FORT WAYNE     CLOUDY    32  25  75 NW9       29.99R WCI  24
HUNTINGTON*    CLOUDY    32  21  65 NW9       29.98F WCI  24
PERU/GRISSOM   PTSUNNY   32  27  80 NW12      30.00R WCI  23
MARION*        PTSUNNY   29  26  88 W5        30.00R FOG     WCI  24

$$
INZ028>050-041600-
CENTRAL INDIANA

CITY           SKY/WX    TMP DP  RH WIND       PRES   REMARKS
LAFAYETTE      PTSUNNY   22  18  85 NW14      30.06R WCI   9
KOKOMO*        MOSUNNY   30  27  86 NW12      30.01R WCI  21
MUNCIE*        CLOUDY    31  27  85 NW7       29.99R FOG     WCI  24
INDIANAPOLIS   CLOUDY    32  26  78 NW12      30.01R FOG     WCI  23

$$
MIZ043>046-050>051-056>058-064>065-071>073-077>080-041600-
SOUTHWEST LOWER MICHIGAN

CITY           SKY/WX    TMP DP  RH WIND       PRES   REMARKS
BATTLE CREEK   CLOUDY    27  17  66 NW14      29.97R WCI  16
BENTON HARBOR  CLOUDY    24  15  68 NW12G20   30.03R WCI  13
COLDWATER*     CLOUDY    30  20  67 NW12      29.95S WCI  20
HILLSDALE*     CLOUDY    31  22  71 W13       29.93R WCI  21
HOLLAND        PTSUNNY   24  15  68 NW15G23   30.00R WCI  11
GRAND RAPIDS   PTSUNNY   25  14  63 NW15      29.97R WCI  13
KALAMAZOO      CLOUDY    27  18  69 NW14      29.98R WCI  16
STURGIS*       CLOUDY    28  19  69 NW10G18   29.96S WCI  19
THREE RIVERS*  PTSUNNY   28  19  69 NW10      29.98R WCI  19

$$
OHZ001>008-015>018-024>025-041600-
NORTHWEST OHIO

CITY           SKY/WX    TMP DP  RH WIND       PRES   REMARKS
WAUSEON*       CLOUDY    32  25  74 W10       29.96S WCI  24
DEFIANCE       CLOUDY    34  25  69 NW7       29.98R WCI  28
FINDLAY        CLOUDY    33  24  69 NW6       29.96F WCI  28
TOLEDO EXPRESS CLOUDY    32  25  74 W7        29.97R WCI  26
TOLEDO METCALF CLOUDY    33  24  69 W9        29.99R WCI  25
LIMA           CLOUDY    33  26  75 NW7       29.97R WCI  27

$$
AND FOR LAKE MICHIGAN COASTAL AND OPEN LAKE BUOY OBSERVATIONS

STATION/POSITION TEMP    WIND        PRES    VSBY  WAVE
                 AIR SEA DIR/SP/G                  HT/PER
                 (F)     (DEG/KT/KT) (MB)    (MI)  (FT/S)
CALUMET HARBOR    22     270/  8/ 12 1016.9F
MICHIGAN CITY     23     300/ 13/ 16   N/A
SAINT JOSEPH      25     310/ 12/ 15 1017.6R

$$
&&


USA.gov is the U.S. government's official web portal to all federal, state and local government web resources and services.